Content
SEND FEEDBACK

Daily
Averages
Monthly
Summary
United States of America

ACHANG BAY, GUAM


Home > North America > United States > Guam
Elevation: 10 meters     Latitude: 13 16N     Longitude: 144 45E

WEATHER
 
SELECT A DAY
Number of Records: 342,219;   Date Range: 1/1/95 - 8/28/14
 
SHARE

PRINT THIS DATA

[ ← Previous Day ]
WEATHER ALMANAC - 15 SEPTEMBER, 2013
[ Next Day → ]
[ °F ]   °C
Weather ElementAverageHighLow
Temperature27.1 °C30.7 °C (10:58 am)24.6 °C (1:58 am)
Dewpoint24.1 °C25 °C (11:53 am)22.8 °C (7:58 pm)
Humidity84.2 %100 % (11:23 pm)66 % (2:38 pm)
Barometer1006.8 hPa1010.5 hPa (8:48 am)1003 hPa (2:58 pm)
Wind Speed10.8 km/h22.2 km/h (10:58 pm)
Weather ElementAverage
Visibility15.3 km
Wind DirectionSSW (187.7 °)

Weather ElementTotal
Precipitation5.08 mm
Cooling Degree Days9.3 (Base 18.3)
Growing Degree Days17.7 (Base 10)
Averaged from 48 records on 15 September, 2013
WEATHER CONDITIONS BREAKOUT
WIND DIRECTION BREAKOUT
WEATHER BY HOUR - 15 SEPTEMBER, 2013
[ °F ]   °C
Local TimeTemperatureDewpointHumidityBarometerVisibilityWind DirectionWind SpeedGust SpeedPrecipitationEventsConditions
1:58 AM24.6 °C23.4 °C93 %1004.7 hPa16.1 kmCalmClear
2:58 AM24.7 °C23.8 °C95 %1004.4 hPa16.1 kmCalmClear
3:58 AM25.5 °C23.8 °C90 %1004.1 hPa16.1 kmNNE (30°)5.6 km/hPartly Cloudy
4:58 AM25.2 °C23.7 °C91 %1004.4 hPa16.1 kmCalmPartly Cloudy
5:58 AM25.3 °C23.2 °C88 %1004.7 hPa16.1 kmNE (40°)7.4 km/hClear
6:52 AM26 °C24 °C89 %1009.5 hPa16.1 kmNE (50°)7.4 km/hLight Drizzle
6:55 AM26 °C24 °C89 %1009.5 hPa16.1 kmNE (50°)5.6 km/hClear
6:58 AM26.4 °C24.2 °C88 %1005.4 hPa16.1 kmNE (40°)7.4 km/h0 mmClear
7:58 AM28.6 °C23.9 °C76 %1005.8 hPa16.1 kmNE (40°)5.6 km/hClear
8:48 AM29 °C24 °C74 %1010.5 hPa16.1 kmCalmMostly Cloudy
8:53 AM29 °C24 °C74 %1010.5 hPa16.1 kmVariable3.7 km/hScattered Clouds
8:58 AM29.2 °C23.8 °C72 %1006.4 hPa16.1 kmCalmScattered Clouds
9:58 AM30.6 °C23.9 °C67 %1005.8 hPa16.1 kmVariable7.4 km/hClear
10:58 AM30.7 °C24.6 °C70 %1005.1 hPa16.1 kmNorth (10°)9.3 km/hPartly Cloudy
11:53 AM30 °C25 °C74 %1009.1 hPa16.1 kmVariable3.7 km/hMostly Cloudy
11:58 AM29.3 °C24.9 °C77 %1004.7 hPa16.1 kmSSW (210°)14.8 km/hMostly Cloudy
12:08 PM28 °C24 °C79 %1008.8 hPa16.1 kmVariable9.3 km/hOvercast
12:29 PM28 °C24 °C79 %1008.5 hPa16.1 kmSSE (160°)13 km/hLight Drizzle
12:39 PM27 °C25 °C89 %1008.5 hPa3.2 kmVariable9.3 km/hRainHeavy Rain
12:49 PM27 °C24 °C84 %1008.1 hPa12.9 kmVariable9.3 km/hRainLight Rain
12:58 PM27.2 °C24.1 °C83 %1004.1 hPa16.1 kmSSW (210°)9.3 km/h4.06 mmRainLight Rain
1:03 PM28 °C24 °C79 %1008.1 hPa16.1 kmSSW (210°)13 km/hRainLight Rain
1:04 PM28 °C24 °C79 %1008.1 hPa16.1 kmSSW (210°)11.1 km/hScattered Clouds
1:39 PM29 °C24 °C74 %1007.8 hPa16.1 kmWest (270°)14.8 km/hMostly Cloudy
1:58 PM28 °C24 °C79 %1003.7 hPa16.1 kmWest (280°)16.7 km/h0 mmOvercast
2:08 PM28 °C24 °C79 %1007.5 hPa16.1 kmWNW (290°)16.7 km/hOvercast
2:28 PM29 °C25 °C79 %1007.5 hPa16.1 kmNorth (350°)13 km/hMostly Cloudy
2:38 PM30 °C23 °C66 %1007.1 hPa16.1 kmNorth (360°)9.3 km/hScattered Clouds
2:58 PM29.9 °C24.3 °C72 %1003 hPa16.1 kmNorth (350°)11.1 km/hPartly Cloudy
3:46 PM28 °C24 °C79 %1007.1 hPa16.1 kmWNW (290°)13 km/hLight Drizzle
3:58 PM27.7 °C24.6 °C83 %1003 hPa16.1 kmNW (310°)9.3 km/h0.25 mmRainRain
4:14 PM28 °C25 °C84 %1007.1 hPa16.1 kmNW (320°)13 km/hClear
4:58 PM28.4 °C24.3 °C78 %1003.4 hPa16.1 kmNW (320°)16.7 km/h0 mmClear
5:58 PM27.6 °C24.4 °C83 %1003.7 hPa16.1 kmNW (310°)11.1 km/hScattered Clouds
6:58 PM26.5 °C24.6 °C89 %1004.4 hPa16.1 kmWNW (300°)9.3 km/hPartly Cloudy
7:58 PM25.3 °C22.8 °C86 %1004.1 hPa16.1 kmNW (310°)13 km/hPartly Cloudy
8:58 PM25.6 °C23.8 °C90 %1004.7 hPa16.1 kmNW (310°)18.5 km/hClear
9:45 PM25 °C24 °C94 %1009.1 hPa16.1 kmNW (320°)18.5 km/hRainLight Rain
9:50 PM26 °C24 °C89 %1009.1 hPa16.1 kmWNW (300°)20.4 km/hRainLight Rain
9:58 PM25.4 °C23.6 °C90 %1005.1 hPa16.1 kmWNW (290°)18.5 km/h0 mmRainLight Rain
10:03 PM25 °C23 °C89 %1009.1 hPa16.1 kmWNW (300°)16.7 km/hRainLight Rain
10:09 PM25 °C23 °C89 %1009.1 hPa16.1 kmWNW (290°)13 km/hScattered Clouds
10:58 PM25.2 °C24.2 °C94 %1005.1 hPa16.1 kmNW (320°)22.2 km/h0.25 mmPartly Cloudy
11:23 PM25 °C25 °C100 %1008.8 hPa8 kmNW (320°)16.7 km/hRainLight Rain
11:28 PM25 °C25 °C100 %1008.5 hPa6.4 kmNW (310°)14.8 km/hRainRain
11:33 PM25 °C25 °C100 %1008.5 hPa9.7 kmNW (310°)13 km/hRainLight Rain
11:48 PM25 °C25 °C100 %1008.8 hPa16.1 kmNW (310°)13 km/hScattered Clouds
11:58 PM25.4 °C24.8 °C96 %1004.7 hPa16.1 kmNW (310°)14.8 km/h0.51 mmPartly Cloudy
Hourly data recorded from PGUA, located 0 kilometers away from Achang Bay, Guam







STORIES FROM OUR PARTNERS